Content
SEND FEEDBACK

Daily
Averages
Monthly
Summary
United States of America

EPPING, NORTH DAKOTA


Home > North America > United States > North Dakota
Elevation: 1951 feet     Latitude: 48 11N     Longitude: 103 38W

WEATHER
 
SELECT A DAY
Number of Records: 207,674;   Date Range: 1/1/95 - 10/29/14
 
SHARE

PRINT THIS DATA

[ ← Previous Day ]
WEATHER ALMANAC - JANUARY 3, 2013
[ Next Day → ]
[ °C ]   °F
Weather ElementAverageHighLow
Temperature14.9 °F21 °F (4:52 pm)9 °F (7:52 am)
Dewpoint10.6 °F15.8 °F (12:52 am)7 °F (8:52 am)
Humidity83.6 %96 % (7:52 am)68 % (4:52 pm)
Barometer30.22 in30.36 in (1:52 am)30.13 in (2:52 pm)
Wind Speed7.2 mph13.8 mph (1:52 pm)
Weather ElementAverage
Visibility10 mi
Wind DirectionSSW (214 °)

Weather ElementTotal
Precipitation---
Heating Degree Days50 (Base 65)
Averaged from 25 records on January 3, 2013
WEATHER CONDITIONS BREAKOUT
WIND DIRECTION BREAKOUT
WEATHER BY HOUR - JANUARY 3, 2013
[ °C ]   °F
Local TimeTemperatureDewpointHumidityBarometerVisibilityWind DirectionWind SpeedGust SpeedPrecipitationEventsConditions
12:52 AM17.6 °F15.8 °F93 %30.26 in10.0 miWNW (290°)6.9 mphOvercast
1:52 AM19.0 °F15.1 °F85 %30.36 in10.0 miWSW (250°)4.6 mphOvercast
2:52 AM17.1 °F14.0 °F88 %30.33 in10.0 miSouth (190°)5.8 mphOvercast
3:06 AM15.8 °F14.0 °F93 %30.22 in10.0 miSSW (200°)4.6 mphScattered Clouds
3:52 AM14.0 °F12.0 °F92 %30.35 in10.0 miSSW (210°)5.8 mphClear
4:52 AM12.0 °F10.9 °F95 %30.33 in10.0 miSSW (200°)4.6 mphClear
5:52 AM10.9 °F9.0 °F92 %30.30 in10.0 miSSW (200°)3.5 mphClear
6:52 AM10.0 °F9.0 °F95 %30.30 in10.0 miSSW (210°)8.1 mphClear
7:52 AM9.0 °F8.1 °F96 %30.28 in10.0 miSSW (210°)5.8 mphClear
8:52 AM9.0 °F7.0 °F92 %30.27 in10.0 miSSW (210°)5.8 mphClear
9:52 AM9.0 °F7.0 °F92 %30.26 in10.0 miSSW (200°)5.8 mphClear
10:52 AM10.9 °F8.1 °F88 %30.24 in10.0 miSSW (210°)8.1 mphClear
11:52 AM14.0 °F10.0 °F84 %30.21 in10.0 miSW (220°)5.8 mphClear
12:52 PM17.1 °F10.0 °F74 %30.17 in10.0 miSW (220°)12.7 mphClear
1:52 PM19.0 °F10.9 °F71 %30.14 in10.0 miSW (220°)13.8 mphClear
2:52 PM19.9 °F12.0 °F71 %30.13 in10.0 miSW (220°)11.5 mphClear
3:52 PM19.9 °F12.9 °F74 %30.13 in10.0 miSW (220°)10.4 mphClear
4:52 PM21.0 °F12.0 °F68 %30.13 in10.0 miSSW (210°)9.2 mphClear
5:52 PM16.0 °F10.9 °F81 %30.14 in10.0 miSW (230°)10.4 mphClear
6:52 PM16.0 °F10.0 °F77 %30.15 in10.0 miWSW (240°)5.8 mphClear
7:52 PM17.1 °F10.0 °F74 %30.16 in10.0 miSSW (200°)6.9 mphClear
8:52 PM16.0 °F9.0 °F74 %30.17 in10.0 miSouth (190°)5.8 mphClear
9:52 PM15.1 °F9.0 °F77 %30.17 in10.0 miSouth (180°)4.6 mphClear
10:52 PM14.0 °F9.0 °F80 %30.17 in10.0 miSSW (210°)6.9 mphClear
11:52 PM12.0 °F8.1 °F84 %30.18 in10.0 miSSW (210°)6.9 mphClear
Hourly data recorded from KISN, located miles away from Epping, North Dakota







STORIES FROM OUR PARTNERS